Location: El Álamo
(40.2307°N, 3.9945°W)
Time: 03:50:10
(UTC+00:00)

Meteor 2-2 Rocket - Pass Details

Date: 19 May 2025
Orbit: 851 x 927 km, 81.3° (Epoch: 23 June)

Event Time Altitude Azimuth Distance (km) Brightness Sun altitude
Exits shadow 20:57:32 15° 167° (SSE) 2,230 5.9 -14.6°
Maximum altitude 21:02:17 54° 94° (E) 1,098 4.5 -15.3°
Drops below altitude 10° 21:08:05 10° 19° (NNE) 2,623 7.1 -16.1°
Sets 21:10:38 0° 15° (NNE) 3,576 7.9 -16.4°
